Date String (YYYY-MM-DD hh:mm:ss) UTC,Instrument flags,absolute air pressure of the measurement (hPa),sample flow rate (lpm),inlet stack bypass flow (lpm),air temperature of the measurement (°C),ambient temperature measured by the external sensor (°C),aerosol sample conditioner tube jacket temperature (°C),OPC LED temperature (°C),internal box temperature (°C),relative humidity of the measurement (%),span deviation,mass concentration of particles derived from Lorenz-Mie calculation of OPC scattering (μg/m³),mass concentration of particles derived from Lorenz-Mie calculation of OPC scattering (μg/m³),mass concentration of particles derived from Lorenz-Mie calculation of OPC scattering (μg/m³)
DateTimeUTC,F1_M11,P_M11,Q1_M11,Q2_M11,T1_M11,T2_M11,T3_M11,T4_M11,T5_M11,U1_M11,ZSPAN_M11,X0_M11,X2_M11,X1_M11
2023-09-25 01:00:00,SystemResetWarning,0833.8,5.00,000.00,028.2,026.9,000.0,036.4,029.9,12.1,0000.0,0008.34,0003.65,0003.01
2023-09-25 01:01:00,SystemResetWarning,0833.8,5.00,000.00,028.2,027.1,000.0,036.4,030.0,12.0,0000.0,0008.44,0003.66,0003.01
2023-09-25 01:02:00,SystemResetWarning,0833.8,4.99,000.00,028.3,027.3,000.0,036.5,030.0,12.0,0000.0,0008.41,0003.68,0003.02
2023-09-25 01:03:00,SystemResetWarning,0833.8,4.99,000.00,028.3,027.2,000.0,036.5,030.1,11.9,0000.0,0008.23,0003.70,0003.01
2023-09-25 01:04:00,SystemResetWarning,0833.8,5.00,000.00,028.3,025.5,000.0,036.4,029.8,11.9,0000.0,0008.27,0003.71,0002.98
2023-09-25 01:05:00,SystemResetWarning,0833.7,5.01,000.00,028.2,024.6,000.0,036.4,029.6,11.9,0000.0,0007.62,0003.65,0002.97
2023-09-25 01:06:00,SystemResetWarning,0833.7,5.01,000.00,028.1,024.7,000.0,036.4,029.5,12.0,0000.0,0007.45,0003.64,0002.97
2023-09-25 01:07:00,SystemResetWarning,0833.7,5.00,000.00,028.0,025.0,000.0,036.4,029.5,12.2,0000.0,0007.52,0003.66,0002.99
2023-09-25 01:08:00,SystemResetWarning,0833.7,5.00,000.00,028.0,025.4,000.0,036.4,029.5,12.3,0000.0,0007.48,0003.65,0002.99
2023-09-25 01:09:00,SystemResetWarning,0833.7,4.99,000.00,028.1,025.7,000.0,036.4,029.6,12.4,0000.0,0007.41,0003.66,0003.00
2023-09-25 01:10:00,SystemResetWarning,0833.8,5.00,000.00,028.1,026.1,000.0,036.4,029.7,12.8,0000.0,0007.39,0003.68,0002.99
2023-09-25 01:11:00,SystemResetWarning,0833.7,5.00,000.00,028.1,026.4,000.0,036.4,029.8,12.8,0000.0,0007.38,0003.67,0002.98
2023-09-25 01:12:00,SystemResetWarning,0833.8,5.00,000.00,028.1,026.6,000.0,036.4,029.8,12.7,0000.0,0007.23,0003.65,0002.98
2023-09-25 01:13:00,SystemResetWarning,0833.8,5.00,000.00,028.2,026.8,000.0,036.4,029.9,12.6,0000.0,0007.03,0003.62,0002.96
2023-09-25 01:14:00,SystemResetWarning,0833.8,4.99,000.00,028.2,027.0,000.0,036.5,030.0,12.5,0000.0,0007.34,0003.62,0002.98
2023-09-25 01:15:00,SystemResetWarning,0833.8,5.00,000.00,028.3,027.2,000.0,036.5,030.0,12.4,0000.0,0007.41,0003.63,0003.00
2023-09-25 01:16:00,SystemResetWarning,0833.8,5.00,000.00,028.3,027.3,000.0,036.5,030.1,12.4,0001.5,0007.45,0003.70,0003.02
2023-09-25 01:17:00,SystemResetWarning,0833.8,4.99,000.00,028.3,026.2,000.0,036.5,029.9,12.6,0003.2,0007.80,0003.71,0003.03
2023-09-25 01:18:00,SystemResetWarning,0833.8,5.01,000.00,028.2,024.2,000.0,036.4,029.3,12.6,0002.0,0007.89,0003.71,0003.02
2023-09-25 01:19:00,SystemResetWarning,0833.8,5.01,000.00,028.0,023.6,000.0,036.3,029.1,12.6,0000.0,0007.87,0003.72,0003.02
2023-09-25 01:20:00,SystemResetWarning,0833.8,5.01,000.00,027.9,023.8,000.0,036.3,029.1,12.7,0000.0,0007.93,0003.72,0003.02
2023-09-25 01:21:00,SystemResetWarning,0833.9,5.00,000.00,027.8,024.2,000.0,036.3,029.1,12.9,0000.0,0008.42,0003.69,0003.04
2023-09-25 01:22:00,SystemResetWarning,0833.9,5.00,000.00,027.8,024.6,000.0,036.3,029.2,12.9,0001.4,0008.79,0003.70,0003.03
2023-09-25 01:23:00,SystemResetWarning,0833.9,5.00,000.00,027.8,025.1,000.0,036.3,029.3,13.0,0000.2,0008.89,0003.69,0003.01
2023-09-25 01:24:00,SystemResetWarning,0833.9,5.00,000.00,027.8,025.5,000.0,036.3,029.4,13.0,0000.0,0009.22,0003.67,0003.03
2023-09-25 01:25:00,SystemResetWarning,0833.9,5.00,000.00,027.8,025.8,000.0,036.3,029.4,12.9,0000.0,0009.11,0003.66,0003.03
2023-09-25 01:26:00,SystemResetWarning,0834.0,5.01,000.00,027.9,026.1,000.0,036.2,029.5,13.1,0000.0,0008.92,0003.62,0003.02
2023-09-25 01:27:00,SystemResetWarning,0834.0,5.00,000.00,027.9,026.4,000.0,036.2,029.6,13.0,0000.0,0008.89,0003.59,0003.01
2023-09-25 01:28:00,SystemResetWarning,0833.9,4.99,000.00,027.9,026.6,000.0,036.3,029.6,13.0,0000.0,0008.84,0003.58,0003.02
2023-09-25 01:29:00,SystemResetWarning,0834.0,5.00,000.00,028.0,026.7,000.0,036.3,029.7,13.1,0000.0,0008.99,0003.55,0003.04
2023-09-25 01:30:00,SystemResetWarning,0834.0,5.00,000.00,028.0,026.9,000.0,036.3,029.8,13.1,0000.0,0009.33,0003.57,0003.03
2023-09-25 01:31:00,SystemResetWarning,0834.0,5.00,000.00,028.1,027.0,000.0,036.3,029.8,13.1,0000.0,0010.72,0003.57,0003.02
2023-09-25 01:32:00,SystemResetWarning,0834.0,4.99,000.00,028.1,027.1,000.0,036.3,029.9,13.1,0000.0,0011.04,0003.55,0003.00
2023-09-25 01:33:00,SystemResetWarning,0834.0,5.01,000.00,028.2,027.2,000.0,036.4,029.9,13.2,0000.0,0011.03,0003.55,0003.01
2023-09-25 01:34:00,SystemResetWarning,0834.0,5.01,000.00,028.2,027.3,000.0,036.4,030.0,13.1,0000.0,0011.73,0003.54,0003.01
2023-09-25 01:35:00,SystemResetWarning,0834.0,5.00,000.00,028.3,027.4,000.0,036.4,030.0,12.8,0000.0,0011.88,0003.57,0003.02
2023-09-25 01:36:00,SystemResetWarning,0834.0,5.00,000.00,028.3,027.4,000.0,036.4,030.1,12.8,0000.0,0011.76,0003.56,0003.02
2023-09-25 01:37:00,SystemResetWarning,0834.0,4.98,000.00,028.3,026.8,000.0,036.5,030.0,12.7,0000.0,0011.83,0003.58,0003.02
2023-09-25 01:38:00,SystemResetWarning,0834.0,5.01,000.00,028.2,024.9,000.0,036.4,029.6,12.9,0000.0,0012.28,0003.62,0003.05
2023-09-25 01:39:00,SystemResetWarning,0834.0,5.00,000.00,028.1,024.5,000.0,036.4,029.5,13.0,0000.0,0012.18,0003.61,0003.04
2023-09-25 01:40:00,SystemResetWarning,0834.0,5.01,000.00,028.0,024.6,000.0,036.4,029.4,13.0,0000.0,0012.17,0003.65,0003.02
2023-09-25 01:41:00,SystemResetWarning,0834.0,5.01,000.00,028.0,024.9,000.0,036.4,029.4,13.1,0000.0,0012.09,0003.63,0003.03
2023-09-25 01:42:00,SystemResetWarning,0834.1,5.00,000.00,028.0,025.3,000.0,036.4,029.4,13.1,0000.0,0010.74,0003.65,0003.06
2023-09-25 01:43:00,SystemResetWarning,0834.1,5.00,000.00,028.0,025.6,000.0,036.3,029.5,13.1,0000.0,0010.10,0003.68,0003.08
2023-09-25 01:44:00,SystemResetWarning,0834.1,5.00,000.00,028.0,025.9,000.0,036.3,029.6,13.1,0000.0,0009.54,0003.67,0003.09
2023-09-25 01:45:00,SystemResetWarning,0834.1,5.00,000.00,028.0,026.2,000.0,036.4,029.6,13.1,0000.4,0009.12,0003.73,0003.10
2023-09-25 01:46:00,SystemResetWarning,0834.1,5.00,000.00,028.0,026.5,000.0,036.4,029.7,13.1,0001.7,0008.83,0003.73,0003.10
2023-09-25 01:47:00,SystemResetWarning,0834.1,5.00,000.00,028.1,026.6,000.0,036.4,029.7,13.1,0002.1,0009.03,0003.78,0003.11
2023-09-25 01:48:00,SystemResetWarning,0834.2,5.00,000.00,028.1,026.8,000.0,036.4,029.8,13.1,0001.9,0009.17,0003.81,0003.11
2023-09-25 01:49:00,SystemResetWarning,0834.1,4.99,000.00,028.2,026.9,000.0,036.4,029.9,13.1,0000.3,0008.94,0003.81,0003.12
2023-09-25 01:50:00,SystemResetWarning,0834.2,5.00,000.00,028.2,027.0,000.0,036.4,029.9,13.1,0000.0,0008.70,0003.84,0003.13
2023-09-25 01:51:00,SystemResetWarning,0834.2,5.00,000.00,028.2,027.1,000.0,036.4,030.0,13.1,0000.0,0008.75,0003.85,0003.14
2023-09-25 01:52:00,SystemResetWarning,0834.2,5.00,000.00,028.3,027.2,000.0,036.5,030.0,13.0,0000.0,0008.37,0003.88,0003.16
2023-09-25 01:53:00,SystemResetWarning,0834.2,5.00,000.00,028.3,027.3,000.0,036.5,030.1,13.0,0000.0,0008.50,0003.87,0003.16
2023-09-25 01:54:00,SystemResetWarning,0834.2,5.01,000.00,028.3,027.4,000.0,036.5,030.1,13.0,0000.0,0008.59,0003.87,0003.17
2023-09-25 01:55:00,SystemResetWarning,0834.2,5.00,000.00,028.4,026.9,000.0,036.5,030.0,12.9,0000.0,0008.77,0003.90,0003.17
2023-09-25 01:56:00,SystemResetWarning,0834.1,4.99,000.00,028.3,025.1,000.0,036.5,029.6,12.9,0000.0,0008.70,0003.89,0003.18
2023-09-25 01:57:00,SystemResetWarning,0834.1,5.01,000.00,028.2,024.4,000.0,036.4,029.4,13.0,0000.0,0008.56,0003.91,0003.19
2023-09-25 01:58:00,SystemResetWarning,0834.2,5.01,000.00,028.1,024.6,000.0,036.4,029.4,13.1,0000.0,0008.28,0003.86,0003.19
2023-09-25 01:59:00,SystemResetWarning,0834.2,5.00,000.00,028.0,024.9,000.0,036.4,029.4,13.1,0000.0,0008.05,0003.82,0003.20
